Location: Fort Wayne
(41.1310°N, 85.1290°W)
Time: 05:08:35
(UTC-04:00)

Vanguard 3 - Visible Passes

Search period start: 26 July 2014 00:00
Search period end: 05 August 2014 00:00
Orbit: 508 x 3279 km, 33.3° (Epoch: 25 July)

Date Brightness Start Highest point End Pass type
(mag) Time Alt. Az. Time Alt. Az. Time Alt. Az.
26 Jul 8.2 04:39:18 25° SSW 04:41:33 33° SSE 04:48:54 10° E visible
27 Jul 9.0 03:31:31 18° SE 03:31:31 18° SE 03:34:39 10° ESE visible
27 Jul 8.3 05:36:16 12° WSW 05:41:22 46° S 05:50:42 10° E visible
28 Jul 7.9 04:28:29 30° S 04:29:49 34° SSE 04:36:35 10° E visible
29 Jul 9.0 03:20:44 16° ESE 03:20:44 16° ESE 03:22:47 10° ESE visible
29 Jul 8.1 05:25:29 15° WSW 05:29:41 44° S 05:38:08 10° ESE visible
30 Jul 7.8 04:17:45 34° S 04:18:10 34° SSE 04:24:21 10° ESE visible
31 Jul 9.2 03:10:02 13° ESE 03:10:02 13° ESE 03:10:58 10° ESE visible
31 Jul 7.9 05:14:48 20° WSW 05:18:03 42° S 05:25:39 10° ESE visible
01 Aug 7.8 04:07:07 33° SSE 04:07:07 33° SSE 04:12:11 10° ESE visible
02 Aug 7.8 05:04:14 25° SW 05:06:29 38° S 05:13:12 10° ESE visible
03 Aug 8.2 03:56:38 27° SE 03:56:38 27° SE 04:00:06 10° ESE visible
03 Aug 8.4 06:01:55 10° WSW 06:06:35 32° S 06:13:53 10° SE visible
04 Aug 7.6 04:53:52 30° SSW 04:54:57 33° S 05:00:48 10° ESE visible
